Taos, NM

9:03 PM MST on February 22, 2017 (GMT -0700)
Taos Municipal

Weather History for KSKX - July, 2015

Change the Weather History Date:

Tuesday, July 7, 2015

  Actual Average Record
Temperature  
Mean Temperature 60 °F -  
Max Temperature 69 °F 82 °F 91 °F (2001)
Min Temperature 51 °F 48 °F 44 °F (2010)
Degree Days  
Heating Degree Days 5    
Growing Degree Days 10 (Base 50)    
Moisture  
Dew Point 46 °F    
Average Humidity 61    
Maximum Humidity 72    
Minimum Humidity 43    
Precipitation  
Precipitation 0.30 in - - ()
Sea Level Pressure  
Sea Level Pressure 30.28 in    
Wind  
Wind Speed 7 mph (SW)    
Max Wind Speed 20 mph    
Max Gust Speed 24 mph    
Visibility 10 miles    
Events Thunderstorm    
Averages and records for this station are not official NWS values.
T = Trace of Precipitation, MM = Missing Value Source: NWS Daily Summary

Daily Weather History Graph

Daily Weather History Graph

Search for Another Location

Airport or City:

Trip Planner

Search our weather history database for the weather conditions in past years. The results will help you decide how hot, cold, wet, or windy it might be!

Date:

Astronomy

Jul. 07, 2015 Rise Set
Actual Time 5:51 AM MDT 8:23 PM MDT
Civil Twilight 5:21 AM MDT 8:53 PM MDT
Nautical Twilight 4:43 AM MDT 9:31 PM MDT
Astronomical Twilight 4:02 AM MDT 10:12 PM MDT
Moon No Moon Rise 12:04 PM MDT (7/7)
Length of Visible Light 15h 32m
Length of Day
14h 32m
Waning Gibbous, 63% of the Moon is Illuminated
Jul 7
Waning Gibbous
Jul 8
Last Quarter
Jul 15
New
Jul 23
First Quarter
Jul 31
Full

Hourly Weather History & Observations

Time (MDT) Temp. Dew Point Humidity Pressure Visibility Wind Dir Wind Speed Gust Speed Precip Events Conditions
12:15 AM 57.2 °F 46.4 °F 67% 30.32 in 10.0 mi SSW 8.1 mph - N/A   Overcast
12:35 AM 57.2 °F 44.6 °F 63% 30.31 in 10.0 mi SE 12.7 mph - 0.01 in   Overcast
12:55 AM 57.2 °F 46.4 °F 67% 30.32 in 10.0 mi ESE 12.7 mph - 0.01 in   Overcast
1:15 AM 57.2 °F 46.4 °F 67% 30.32 in 10.0 mi NE 5.8 mph - N/A   Overcast
1:35 AM 57.2 °F 46.4 °F 67% 30.32 in 10.0 mi NNE 5.8 mph - 0.01 in   Overcast
1:55 AM 57.2 °F 46.4 °F 67% 30.32 in 10.0 mi North 5.8 mph - 0.01 in   Overcast
2:15 AM 57.2 °F 46.4 °F 67% 30.32 in 10.0 mi NE 4.6 mph - N/A   Overcast
2:35 AM 57.2 °F 46.4 °F 67% 30.32 in 10.0 mi NE 6.9 mph - N/A   Mostly Cloudy
2:55 AM 57.2 °F 46.4 °F 67% 30.31 in 10.0 mi NE 8.1 mph - N/A   Overcast
3:15 AM 57.2 °F 46.4 °F 67% 30.31 in 10.0 mi ENE 4.6 mph - N/A   Overcast
3:35 AM 57.2 °F 46.4 °F 67% 30.31 in 10.0 mi ENE 3.5 mph - N/A   Overcast
3:55 AM 57.2 °F 46.4 °F 67% 30.30 in 10.0 mi Calm Calm - N/A   Overcast
4:15 AM 57.2 °F 46.4 °F 67% 30.30 in 10.0 mi North 4.6 mph - N/A   Mostly Cloudy
4:35 AM 57.2 °F 46.4 °F 67% 30.31 in 10.0 mi North 3.5 mph - N/A   Overcast
4:55 AM 57.2 °F 46.4 °F 67% 30.31 in 10.0 mi Calm Calm - N/A   Overcast
5:15 AM 57.2 °F 46.4 °F 67% 30.32 in 10.0 mi Calm Calm - N/A   Overcast
5:35 AM 55.4 °F 46.4 °F 72% 30.32 in 10.0 mi South 5.8 mph - 0.03 in   Overcast
5:55 AM 55.4 °F 46.4 °F 72% 30.32 in 10.0 mi Calm Calm - 0.03 in   Overcast
6:15 AM 55.4 °F 46.4 °F 72% 30.32 in 10.0 mi South 3.5 mph - 0.01 in   Overcast
6:35 AM 55.4 °F 46.4 °F 72% 30.32 in 10.0 mi Calm Calm - 0.01 in   Overcast
6:55 AM 57.2 °F 48.2 °F 72% 30.32 in 10.0 mi SE 4.6 mph - 0.01 in   Overcast
7:15 AM 57.2 °F 48.2 °F 72% 30.32 in 10.0 mi Calm Calm - N/A   Mostly Cloudy
7:35 AM 57.2 °F 48.2 °F 72% 30.33 in 10.0 mi WNW 3.5 mph - N/A   Overcast
7:55 AM 57.2 °F 48.2 °F 72% 30.32 in 10.0 mi WNW 3.5 mph - N/A   Overcast
8:15 AM 57.2 °F 48.2 °F 72% 30.33 in 10.0 mi West 6.9 mph - N/A   Overcast
8:35 AM 59.0 °F 46.4 °F 63% 30.33 in 10.0 mi West 5.8 mph - N/A   Mostly Cloudy
8:55 AM 59.0 °F 48.2 °F 67% 30.33 in 10.0 mi WNW 5.8 mph - N/A   Mostly Cloudy
9:15 AM 59.0 °F 46.4 °F 63% 30.32 in 10.0 mi West 5.8 mph - N/A   Mostly Cloudy
9:35 AM 60.8 °F 46.4 °F 59% 30.32 in 10.0 mi West 5.8 mph - N/A   Mostly Cloudy
9:55 AM 60.8 °F 46.4 °F 59% 30.32 in 10.0 mi West 6.9 mph - N/A   Mostly Cloudy
10:15 AM 62.6 °F 46.4 °F 55% 30.32 in 10.0 mi WSW 6.9 mph - N/A   Mostly Cloudy
10:35 AM 62.6 °F 46.4 °F 55% 30.32 in 10.0 mi West 6.9 mph - N/A   Mostly Cloudy
10:55 AM 62.6 °F 46.4 °F 55% 30.32 in 10.0 mi West 8.1 mph - N/A   Mostly Cloudy
11:15 AM 62.6 °F 46.4 °F 55% 30.32 in 10.0 mi WSW 8.1 mph - N/A   Overcast
11:35 AM 62.6 °F 46.4 °F 55% 30.32 in 10.0 mi WSW 9.2 mph - N/A   Mostly Cloudy
11:55 AM 62.6 °F 46.4 °F 55% 30.32 in 10.0 mi WSW 8.1 mph - N/A   Overcast
12:15 PM 62.6 °F 46.4 °F 55% 30.32 in 10.0 mi West 4.6 mph - N/A   Mostly Cloudy
12:35 PM 62.6 °F 46.4 °F 55% 30.31 in 10.0 mi West 5.8 mph - N/A   Mostly Cloudy
12:55 PM 62.6 °F 46.4 °F 55% 30.31 in 10.0 mi West 4.6 mph - N/A   Overcast
1:15 PM 62.6 °F 46.4 °F 55% 30.29 in 10.0 mi WSW 6.9 mph - N/A   Overcast
1:35 PM 64.4 °F 46.4 °F 52% 30.29 in 10.0 mi SSW 6.9 mph - N/A   Scattered Clouds
1:55 PM 64.4 °F 46.4 °F 52% 30.27 in 10.0 mi South 4.6 mph - N/A   Clear
2:15 PM 66.2 °F 46.4 °F 49% 30.26 in 10.0 mi SW 5.8 mph - N/A   Clear
2:35 PM 68.0 °F 46.4 °F 46% 30.25 in 10.0 mi SSE 6.9 mph - N/A   Scattered Clouds
2:55 PM 69.8 °F 48.2 °F 46% 30.23 in 10.0 mi SSW 10.4 mph - N/A   Mostly Cloudy
3:15 PM 69.8 °F 48.2 °F 46% 30.23 in 10.0 mi SE 4.6 mph - N/A   Scattered Clouds
3:35 PM 69.8 °F 46.4 °F 43% 30.22 in 10.0 mi Calm Calm - N/A   Scattered Clouds
3:55 PM 69.8 °F 46.4 °F 43% 30.22 in 10.0 mi WSW 3.5 mph - N/A   Scattered Clouds
4:15 PM 69.8 °F 46.4 °F 43% 30.22 in 10.0 mi Calm Calm - N/A Thunderstorm Mostly Cloudy
4:35 PM 69.8 °F 46.4 °F 43% 30.21 in 10.0 mi Calm Calm - N/A Thunderstorm Overcast
4:55 PM 66.2 °F 42.8 °F 43% 30.23 in 10.0 mi NNW 18.4 mph 24.2 mph N/A Thunderstorm Overcast
5:15 PM 57.2 °F 42.8 °F 59% 30.25 in 7.0 mi NNE 19.6 mph 24.2 mph 0.06 in Thunderstorm Thunderstorm
5:35 PM 55.4 °F 42.8 °F 63% 30.24 in 10.0 mi NNE 11.5 mph - 0.07 in Thunderstorm Overcast
5:55 PM 57.2 °F 44.6 °F 63% 30.22 in 10.0 mi NNE 11.5 mph - 0.07 in   Mostly Cloudy
6:15 PM 60.8 °F 44.6 °F 55% 30.20 in 10.0 mi NE 10.4 mph - N/A Thunderstorm Mostly Cloudy
6:35 PM 60.8 °F 44.6 °F 55% 30.18 in 10.0 mi ENE 11.5 mph - N/A   Partly Cloudy
6:55 PM 62.6 °F 44.6 °F 52% 30.19 in 10.0 mi ENE 11.5 mph - N/A   Partly Cloudy
7:15 PM 62.6 °F 44.6 °F 52% 30.20 in 10.0 mi SE 3.5 mph - N/A   Scattered Clouds
7:35 PM 60.8 °F 44.6 °F 55% 30.21 in 10.0 mi North 5.8 mph - N/A   Partly Cloudy
7:55 PM 59.0 °F 44.6 °F 59% 30.22 in 10.0 mi North 5.8 mph - N/A   Scattered Clouds
8:15 PM 57.2 °F 44.6 °F 63% 30.24 in 10.0 mi NNW 9.2 mph - N/A Thunderstorm Overcast
8:35 PM 59.0 °F 44.6 °F 59% 30.27 in 10.0 mi West 13.8 mph - 0.01 in Thunderstorm Thunderstorm
8:55 PM 55.4 °F 42.8 °F 63% 30.28 in 10.0 mi SW 5.8 mph - 0.10 in   Mostly Cloudy
9:15 PM 53.6 °F 42.8 °F 67% 30.28 in 10.0 mi SE 8.1 mph - 0.04 in   Overcast
9:35 PM 51.8 °F 42.8 °F 71% 30.27 in 10.0 mi ESE 15.0 mph - 0.07 in   Overcast
9:55 PM 51.8 °F 42.8 °F 71% 30.25 in 10.0 mi SE 12.7 mph - 0.07 in   Mostly Cloudy
10:15 PM 51.8 °F 42.8 °F 71% 30.24 in 10.0 mi SE 10.4 mph - N/A   Mostly Cloudy
10:35 PM 51.8 °F 42.8 °F 71% 30.24 in 10.0 mi South 6.9 mph - N/A   Scattered Clouds
10:55 PM 51.8 °F 42.8 °F 71% 30.24 in 10.0 mi SSE 10.4 mph - N/A   Partly Cloudy
11:15 PM 53.6 °F 41.0 °F 62% 30.25 in 10.0 mi South 10.4 mph - N/A   Partly Cloudy
11:35 PM 51.8 °F 42.8 °F 71% 30.25 in 10.0 mi SE 6.9 mph - N/A   Clear
11:55 PM 51.8 °F 42.8 °F 71% 30.26 in 10.0 mi SSE 5.8 mph - N/A   Clear